SIA481 FAOR-WSSS

Flight info

Callsign SIA481
Flight time N/A
Altitude 37000
Route EXOBI1A EXOBI UT122 SUNIR UG653 SDG UA401 SOBAT DCT PLS DCT EXIPU UT633 NEXAV/N0487F390 UT633 PEDPI N633 PIBED/N0484F410 N633 PKU R469 ASUNA ASUNA2A
Aircraft A359/H-SDE1E2E3GHIJ1J2J3J5M1P2RWXYZ/LB1D1

Departure

Time 2026-05-05 12:11
Airport O.R. Tambo International Airport (FAOR)

Arrival

Time N/A
Airport Singapore Changi Airport (WSSS)
Time Latitude Longitude Altitude Speed Heading
2026-05-05 11:43 -26.12917 28.23576 5553 ft 0 kts 186°
2026-05-05 12:01 -26.12896 28.23579 5555 ft 3 kts 186°
2026-05-05 12:01 -26.12873 28.23577 5555 ft 4 kts 136°
2026-05-05 12:01 -26.12864 28.23553 5556 ft 4 kts 94°
2026-05-05 12:01 -26.12863 28.23538 5553 ft 1 kts 96°
2026-05-05 12:03 -26.12863 28.23543 5553 ft 3 kts 91°
2026-05-05 12:03 -26.12851 28.23624 5554 ft 17 kts 73°
2026-05-05 12:03 -26.12835 28.23731 5554 ft 11 kts 99°
2026-05-05 12:03 -26.12891 28.23770 5550 ft 10 kts 181°
2026-05-05 12:04 -26.12959 28.23754 5550 ft 10 kts 196°
2026-05-05 12:04 -26.13020 28.23734 5555 ft 9 kts 196°
2026-05-05 12:04 -26.13079 28.23716 5551 ft 9 kts 196°
2026-05-05 12:04 -26.13136 28.23698 5553 ft 9 kts 196°
2026-05-05 12:05 -26.13195 28.23679 5550 ft 9 kts 196°
2026-05-05 12:05 -26.13253 28.23661 5551 ft 8 kts 196°
2026-05-05 12:05 -26.13298 28.23646 5553 ft 6 kts 196°
2026-05-05 12:05 -26.13338 28.23634 5554 ft 7 kts 195°
2026-05-05 12:06 -26.13399 28.23616 5555 ft 11 kts 195°
2026-05-05 12:06 -26.13487 28.23589 5557 ft 14 kts 195°
2026-05-05 12:06 -26.13578 28.23562 5559 ft 13 kts 195°
2026-05-05 12:06 -26.13659 28.23538 5560 ft 11 kts 195°
2026-05-05 12:07 -26.13724 28.23517 5561 ft 8 kts 195°
2026-05-05 12:07 -26.13779 28.23500 5563 ft 9 kts 195°
2026-05-05 12:07 -26.13851 28.23478 5564 ft 13 kts 195°
2026-05-05 12:07 -26.13947 28.23448 5566 ft 16 kts 195°
2026-05-05 12:08 -26.14059 28.23412 5568 ft 17 kts 195°
2026-05-05 12:08 -26.14184 28.23373 5569 ft 20 kts 195°
2026-05-05 12:08 -26.14312 28.23333 5568 ft 18 kts 195°
2026-05-05 12:08 -26.14432 28.23296 5568 ft 18 kts 195°
2026-05-05 12:09 -26.14550 28.23284 5571 ft 16 kts 168°
2026-05-05 12:09 -26.14572 28.23293 5571 ft 0 kts 154°
2026-05-05 12:09 -26.14583 28.23303 5569 ft 9 kts 136°
2026-05-05 12:09 -26.14611 28.23371 5573 ft 9 kts 109°
2026-05-05 12:10 -26.14611 28.23434 5573 ft 8 kts 56°
2026-05-05 12:10 -26.14555 28.23461 5572 ft 10 kts 15°
2026-05-05 12:10 -26.14317 28.23535 5572 ft 66 kts 15°
2026-05-05 12:10 -26.13696 28.23728 5566 ft 123 kts 15°
2026-05-05 12:11 -26.12684 28.24041 5549 ft 177 kts 15°
2026-05-05 12:11 -26.11455 28.24418 6196 ft 180 kts 14°
2026-05-05 12:11 -26.10248 28.24815 6928 ft 184 kts 16°
2026-05-05 12:11 -26.08975 28.25244 7144 ft 196 kts 15°
2026-05-05 12:12 -26.07686 28.25888 7285 ft 210 kts 34°
2026-05-05 12:12 -26.06759 28.27185 7369 ft 223 kts 66°
2026-05-05 12:12 -26.06414 28.28862 7484 ft 228 kts 79°
2026-05-05 12:12 -26.06171 28.30641 7577 ft 236 kts 80°
2026-05-05 12:13 -26.05932 28.32482 7662 ft 245 kts 81°
2026-05-05 12:13 -26.05692 28.34438 7748 ft 265 kts 80°
2026-05-05 12:13 -26.05428 28.36501 7881 ft 272 kts 80°
2026-05-05 12:13 -26.05140 28.38603 7987 ft 279 kts 80°
2026-05-05 12:14 -26.04856 28.40750 8068 ft 283 kts 79°
2026-05-05 12:14 -26.04557 28.42905 8125 ft 288 kts 80°
2026-05-05 12:14 -26.04255 28.45139 8292 ft 296 kts 79°
2026-05-05 12:14 -26.04090 28.47439 8709 ft 302 kts 91°
2026-05-05 12:15 -26.04453 28.49743 9279 ft 304 kts 103°
2026-05-05 12:15 -26.05040 28.52014 9827 ft 307 kts 105°
2026-05-05 12:15 -26.05659 28.54313 10285 ft 314 kts 105°
2026-05-05 12:15 -26.06293 28.56695 10521 ft 329 kts 104°
2026-05-05 12:16 -26.06953 28.59192 10745 ft 344 kts 104°
2026-05-05 12:16 -26.07637 28.61800 10973 ft 358 kts 104°
2026-05-05 12:16 -26.08338 28.64475 11194 ft 371 kts 104°
2026-05-05 12:16 -26.09072 28.67288 11407 ft 384 kts 104°
2026-05-05 12:17 -26.09828 28.70182 11721 ft 392 kts 104°
2026-05-05 12:17 -26.10445 28.73153 12175 ft 395 kts 95°
2026-05-05 12:17 -26.10395 28.76169 12657 ft 394 kts 81°
2026-05-05 12:17 -26.09988 28.79202 13140 ft 397 kts 78°
2026-05-05 12:18 -26.09533 28.82250 13627 ft 400 kts 78°
2026-05-05 12:18 -26.09078 28.85314 14098 ft 403 kts 78°
2026-05-05 12:18 -26.08629 28.88368 14541 ft 406 kts 78°
2026-05-05 12:18 -26.08175 28.91484 14987 ft 409 kts 78°
2026-05-05 12:19 -26.07718 28.94621 15431 ft 412 kts 78°
2026-05-05 12:19 -26.07258 28.97786 15853 ft 415 kts 78°
2026-05-05 12:19 -26.06795 29.00968 16287 ft 418 kts 78°
2026-05-05 12:19 -26.06327 29.04178 16695 ft 421 kts 78°
2026-05-05 12:20 -26.05857 29.07408 17106 ft 424 kts 78°
2026-05-05 12:20 -26.05389 29.10616 17500 ft 426 kts 78°
2026-05-05 12:20 -26.04929 29.13887 17879 ft 429 kts 80°
2026-05-05 12:20 -26.04633 29.17213 18251 ft 433 kts 83°
2026-05-05 12:21 -26.04459 29.20581 18628 ft 436 kts 85°
2026-05-05 12:21 -26.04347 29.23951 18968 ft 439 kts 86°
2026-05-05 12:21 -26.04254 29.27367 19304 ft 442 kts 86°
2026-05-05 12:21 -26.04154 29.30741 19706 ft 444 kts 85°
2026-05-05 12:22 -26.04050 29.34193 20066 ft 447 kts 85°
2026-05-05 12:22 -26.03931 29.37654 20429 ft 449 kts 85°
2026-05-05 12:22 -26.03801 29.41136 20823 ft 452 kts 85°
2026-05-05 12:22 -26.03665 29.44643 21188 ft 455 kts 85°
2026-05-05 12:23 -26.03525 29.48169 21540 ft 457 kts 85°
2026-05-05 12:23 -26.03384 29.51710 21916 ft 460 kts 85°
2026-05-05 12:23 -26.03241 29.55274 22258 ft 463 kts 85°
2026-05-05 12:23 -26.03098 29.58855 22593 ft 465 kts 85°
2026-05-05 12:24 -26.02953 29.62462 22933 ft 466 kts 85°
2026-05-05 12:24 -26.02821 29.66029 23135 ft 468 kts 85°
2026-05-05 12:24 -26.02675 29.69661 23294 ft 472 kts 85°
2026-05-05 12:24 -26.02523 29.73318 23603 ft 475 kts 85°
2026-05-05 12:25 -26.02369 29.76995 23979 ft 476 kts 85°
2026-05-05 12:25 -26.02215 29.80677 24305 ft 479 kts 85°
2026-05-05 12:25 -26.02060 29.84394 24619 ft 481 kts 85°
2026-05-05 12:25 -26.01903 29.88130 24933 ft 485 kts 85°
2026-05-05 12:26 -26.01747 29.91841 25252 ft 487 kts 85°
2026-05-05 12:26 -26.01589 29.95615 25574 ft 490 kts 85°
2026-05-05 12:26 -26.01428 29.99420 25880 ft 493 kts 85°
2026-05-05 12:26 -26.01264 30.03240 26215 ft 496 kts 85°
2026-05-05 12:27 -26.01099 30.07079 26527 ft 499 kts 85°
2026-05-05 12:27 -26.00931 30.10950 26832 ft 502 kts 85°
2026-05-05 12:27 -26.00761 30.14843 27147 ft 505 kts 84°
2026-05-05 12:27 -26.00590 30.18748 27441 ft 507 kts 84°
2026-05-05 12:28 -26.00416 30.22682 27718 ft 510 kts 84°
2026-05-05 12:28 -26.00242 30.26592 27993 ft 513 kts 85°
2026-05-05 12:28 -26.00065 30.30568 28287 ft 516 kts 84°
2026-05-05 12:28 -25.99887 30.34561 28565 ft 518 kts 84°
2026-05-05 12:29 -25.99709 30.38582 28815 ft 521 kts 85°
2026-05-05 12:29 -25.99524 30.42628 29087 ft 523 kts 84°
2026-05-05 12:29 -25.99337 30.46629 29314 ft 525 kts 84°
2026-05-05 12:29 -25.99149 30.50694 29573 ft 527 kts 84°
2026-05-05 12:30 -25.98961 30.54767 29836 ft 529 kts 85°
2026-05-05 12:30 -25.98772 30.58866 30078 ft 531 kts 84°
2026-05-05 12:30 -25.98581 30.62979 30325 ft 532 kts 84°
2026-05-05 12:30 -25.98387 30.67094 30542 ft 534 kts 84°
2026-05-05 12:31 -25.98191 30.71231 30814 ft 535 kts 84°
2026-05-05 12:31 -25.97997 30.75314 31181 ft 533 kts 84°
2026-05-05 12:31 -25.97801 30.79419 31550 ft 531 kts 84°
2026-05-05 12:31 -25.97602 30.83532 31887 ft 530 kts 84°
2026-05-05 12:32 -25.97403 30.87624 32195 ft 530 kts 84°
2026-05-05 12:32 -25.97201 30.91712 32502 ft 528 kts 84°
2026-05-05 12:32 -25.97000 30.95763 32825 ft 527 kts 84°
2026-05-05 12:32 -25.96795 30.99803 33082 ft 527 kts 84°
2026-05-05 12:33 -25.96587 31.03879 33319 ft 526 kts 84°
2026-05-05 12:33 -25.96386 31.07940 33606 ft 526 kts 84°
2026-05-05 12:33 -25.96186 31.11986 33893 ft 524 kts 84°
2026-05-05 12:33 -25.95985 31.16027 34092 ft 525 kts 84°
2026-05-05 12:34 -25.95779 31.20094 34323 ft 524 kts 84°
2026-05-05 12:34 -25.95569 31.24136 34538 ft 524 kts 84°
2026-05-05 12:34 -25.95356 31.28181 34733 ft 524 kts 84°
2026-05-05 12:34 -25.95155 31.32113 34944 ft 524 kts 84°
2026-05-05 12:35 -25.94946 31.36185 35163 ft 523 kts 84°
2026-05-05 12:35 -25.94737 31.40226 35344 ft 523 kts 84°
2026-05-05 12:35 -25.94525 31.44279 35523 ft 523 kts 84°
2026-05-05 12:35 -25.94313 31.48300 35678 ft 523 kts 84°
2026-05-05 12:36 -25.94097 31.52339 35826 ft 524 kts 84°
2026-05-05 12:36 -25.93881 31.56381 35979 ft 524 kts 84°
2026-05-05 12:36 -25.93665 31.60401 36146 ft 523 kts 84°
2026-05-05 12:36 -25.93450 31.64399 36290 ft 524 kts 84°
2026-05-05 12:37 -25.93232 31.68427 36433 ft 524 kts 84°
2026-05-05 12:37 -25.93012 31.72476 36544 ft 524 kts 84°
2026-05-05 12:37 -25.92792 31.76510 36717 ft 523 kts 84°
2026-05-05 12:37 -25.92574 31.80555 36839 ft 523 kts 84°
2026-05-05 12:38 -25.92125 31.88618 36840 ft 521 kts 84°
2026-05-05 12:38 -25.91674 31.96612 36837 ft 520 kts 84°
2026-05-05 12:39 -25.91247 32.03277 36830 ft 520 kts 83°
2026-05-05 12:39 -25.90528 32.12592 36818 ft 520 kts 82°
2026-05-05 12:40 -25.90011 32.19254 36831 ft 520 kts 82°
2026-05-05 12:40 -25.89407 32.27239 36814 ft 519 kts 83°
2026-05-05 12:41 -25.88804 32.35259 36814 ft 519 kts 83°
2026-05-05 12:41 -25.88201 32.43233 36803 ft 519 kts 83°
2026-05-05 12:42 -25.87591 32.51223 36806 ft 519 kts 83°
2026-05-05 12:42 -25.86959 32.59151 36798 ft 518 kts 80°
2026-05-05 12:43 -25.85686 32.66993 36806 ft 516 kts 76°
2026-05-05 12:43 -25.84241 32.74812 36807 ft 515 kts 75°
2026-05-05 12:44 -25.82774 32.82605 36801 ft 515 kts 75°
2026-05-05 12:44 -25.81320 32.90338 36813 ft 515 kts 76°
2026-05-05 12:45 -25.79860 32.98128 36815 ft 515 kts 76°
2026-05-05 12:45 -25.78398 33.05913 36814 ft 514 kts 76°
2026-05-05 12:46 -25.76942 33.13638 36830 ft 514 kts 76°
2026-05-05 12:46 -25.75473 33.21403 36843 ft 514 kts 76°
2026-05-05 12:47 -25.74000 33.29174 36852 ft 514 kts 76°
2026-05-05 12:47 -25.72522 33.36935 36859 ft 514 kts 76°
2026-05-05 12:48 -25.71038 33.44714 36870 ft 514 kts 76°
2026-05-05 12:48 -25.69563 33.52430 36876 ft 514 kts 76°
2026-05-05 12:49 -25.68073 33.60194 36881 ft 514 kts 75°
2026-05-05 12:49 -25.66580 33.67957 36878 ft 514 kts 75°
2026-05-05 12:50 -25.65082 33.75714 36888 ft 515 kts 75°
2026-05-05 12:50 -25.63576 33.83483 36882 ft 515 kts 75°
2026-05-05 12:51 -25.62076 33.91202 36885 ft 515 kts 75°
2026-05-05 12:51 -25.60565 33.98953 36890 ft 515 kts 75°
2026-05-05 12:52 -25.59050 34.06706 36889 ft 515 kts 75°
2026-05-05 12:52 -25.57558 34.14473 36887 ft 515 kts 76°
2026-05-05 12:53 -25.56133 34.22245 36885 ft 514 kts 76°
2026-05-05 12:53 -25.54718 34.29961 36897 ft 514 kts 76°
2026-05-05 12:54 -25.52553 34.41608 36888 ft 514 kts 76°
2026-05-05 12:55 -25.51099 34.49374 36886 ft 514 kts 76°
2026-05-05 12:55 -25.49650 34.57086 36893 ft 513 kts 76°
2026-05-05 12:56 -25.48192 34.64830 36887 ft 513 kts 76°
2026-05-05 12:56 -25.46737 34.72533 36889 ft 513 kts 76°
2026-05-05 12:57 -25.45272 34.80273 36898 ft 513 kts 76°
2026-05-05 12:57 -25.43803 34.88002 36893 ft 513 kts 76°
2026-05-05 12:58 -25.42331 34.95727 36895 ft 512 kts 76°
2026-05-05 12:58 -25.40868 35.03379 36899 ft 512 kts 76°
2026-05-05 12:59 -25.39387 35.11105 36893 ft 512 kts 76°
2026-05-05 12:59 -25.37905 35.18810 36892 ft 512 kts 76°
2026-05-05 13:00 -25.35675 35.30370 36892 ft 512 kts 76°
2026-05-05 13:01 -25.32692 35.45746 36888 ft 512 kts 76°
2026-05-05 13:01 -25.31194 35.53438 36884 ft 512 kts 76°
2026-05-05 13:02 -25.29694 35.61114 36885 ft 511 kts 76°
2026-05-05 13:02 -25.28196 35.68758 36890 ft 511 kts 76°
2026-05-05 13:03 -25.26684 35.76444 36893 ft 512 kts 76°
2026-05-05 13:03 -25.25167 35.84136 36901 ft 512 kts 76°
2026-05-05 13:04 -25.23649 35.91824 36890 ft 512 kts 76°
2026-05-05 13:04 -25.22126 35.99514 36899 ft 512 kts 76°
2026-05-05 13:05 -25.20610 36.07141 36896 ft 511 kts 76°
2026-05-05 13:05 -25.19080 36.14811 36898 ft 511 kts 76°
2026-05-05 13:06 -25.17547 36.22482 36892 ft 511 kts 76°
2026-05-05 13:06 -25.16012 36.30142 36893 ft 511 kts 76°
2026-05-05 13:07 -25.14482 36.37751 36894 ft 510 kts 76°
2026-05-05 13:07 -25.12940 36.45400 36899 ft 510 kts 76°
2026-05-05 13:08 -25.11398 36.53023 36896 ft 510 kts 76°
2026-05-05 13:08 -25.09796 36.60652 36902 ft 510 kts 75°
2026-05-05 13:09 -25.08081 36.68251 36899 ft 510 kts 74°
2026-05-05 13:09 -25.06361 36.75850 36909 ft 510 kts 75°
2026-05-05 13:10 -25.04668 36.83396 36925 ft 510 kts 75°
2026-05-05 13:10 -25.02966 36.91004 36914 ft 510 kts 75°
2026-05-05 13:11 -25.01264 36.98597 36922 ft 510 kts 75°
2026-05-05 13:11 -24.99570 37.06137 36896 ft 509 kts 75°
2026-05-05 13:12 -24.97861 37.13721 36889 ft 509 kts 75°
2026-05-05 13:12 -24.96152 37.21282 36883 ft 509 kts 75°
2026-05-05 13:13 -24.94431 37.28876 36890 ft 509 kts 75°
2026-05-05 13:13 -24.92720 37.36406 36890 ft 509 kts 75°
2026-05-05 13:14 -24.90997 37.43973 36890 ft 509 kts 75°
2026-05-05 13:14 -24.89269 37.51542 36887 ft 509 kts 75°
2026-05-05 13:15 -24.87538 37.59111 36890 ft 509 kts 75°
2026-05-05 13:15 -24.85814 37.66625 36885 ft 509 kts 75°
2026-05-05 13:16 -24.84076 37.74180 36885 ft 509 kts 75°
2026-05-05 13:16 -24.82333 37.81741 36891 ft 508 kts 75°
2026-05-05 13:17 -24.80586 37.89300 36896 ft 508 kts 75°
2026-05-05 13:17 -24.78848 37.96801 36894 ft 508 kts 75°
2026-05-05 13:18 -24.77095 38.04357 36896 ft 508 kts 75°
2026-05-05 13:18 -24.75353 38.11844 36893 ft 508 kts 75°
2026-05-05 13:19 -24.73595 38.19370 36900 ft 508 kts 75°
2026-05-05 13:19 -24.71831 38.26910 36898 ft 508 kts 75°
2026-05-05 13:20 -24.70065 38.34441 36893 ft 508 kts 75°
2026-05-05 13:20 -24.68296 38.41967 36899 ft 508 kts 75°
2026-05-05 13:21 -24.66521 38.49499 36896 ft 508 kts 75°
2026-05-05 13:21 -24.64755 38.56974 36895 ft 508 kts 75°
2026-05-05 13:22 -24.62998 38.64399 36896 ft 508 kts 75°
2026-05-05 13:22 -24.61208 38.71944 36895 ft 508 kts 75°
2026-05-05 13:23 -24.59419 38.79461 36902 ft 508 kts 75°
2026-05-05 13:23 -24.57638 38.86930 36893 ft 508 kts 75°
2026-05-05 13:24 -24.55843 38.94442 36906 ft 508 kts 75°
2026-05-05 13:24 -24.54045 39.01951 36914 ft 508 kts 74°
2026-05-05 13:25 -24.52236 39.09478 36906 ft 509 kts 74°
2026-05-05 13:25 -24.50425 39.17000 36915 ft 509 kts 75°
2026-05-05 13:26 -24.48625 39.24463 36901 ft 508 kts 75°
2026-05-05 13:26 -24.46809 39.31973 36900 ft 508 kts 74°
2026-05-05 13:27 -24.44993 39.39468 36906 ft 509 kts 74°
2026-05-05 13:27 -24.43169 39.46972 36904 ft 508 kts 75°
2026-05-05 13:28 -24.41353 39.54431 36908 ft 508 kts 75°
2026-05-05 13:28 -24.39525 39.61922 36903 ft 508 kts 74°
2026-05-05 13:29 -24.37997 39.68170 36911 ft 508 kts 74°
2026-05-05 13:29 -24.36161 39.75658 36911 ft 508 kts 74°
2026-05-05 13:30 -24.34321 39.83149 36920 ft 508 kts 74°
2026-05-05 13:30 -24.32488 39.90592 36913 ft 508 kts 74°
2026-05-05 13:31 -24.30643 39.98071 36913 ft 508 kts 74°
2026-05-05 13:31 -24.28833 40.05561 36911 ft 508 kts 75°
2026-05-05 13:32 -24.27110 40.13086 36911 ft 508 kts 76°
2026-05-05 13:32 -24.25387 40.20603 36921 ft 508 kts 75°
2026-05-05 13:33 -24.23655 40.28079 36917 ft 508 kts 75°
2026-05-05 13:33 -24.21902 40.35596 36909 ft 508 kts 75°
2026-05-05 13:34 -24.20155 40.43064 36912 ft 508 kts 75°
2026-05-05 13:34 -24.18396 40.50567 36916 ft 508 kts 75°
2026-05-05 13:35 -24.16633 40.58074 36927 ft 508 kts 75°
2026-05-05 13:35 -24.14867 40.65577 36912 ft 508 kts 75°
2026-05-05 13:36 -24.13109 40.73029 36929 ft 508 kts 75°
2026-05-05 13:36 -24.11334 40.80527 36909 ft 508 kts 75°
2026-05-05 13:37 -24.09558 40.88017 36930 ft 508 kts 75°
2026-05-05 13:37 -24.07778 40.95507 36927 ft 508 kts 75°
2026-05-05 13:38 -24.05994 41.02997 36909 ft 508 kts 75°
2026-05-05 13:38 -24.04215 41.10447 36927 ft 508 kts 75°
2026-05-05 13:39 -24.02422 41.17938 36930 ft 508 kts 75°
2026-05-05 13:39 -24.00628 41.25417 36927 ft 508 kts 75°
2026-05-05 13:40 -23.98834 41.32889 36928 ft 507 kts 76°
2026-05-05 13:40 -23.97049 41.40295 36934 ft 506 kts 75°
2026-05-05 13:41 -23.95246 41.47753 36935 ft 506 kts 76°
2026-05-05 13:41 -23.93443 41.55201 36933 ft 506 kts 76°
2026-05-05 13:42 -23.91646 41.62611 36933 ft 506 kts 75°
2026-05-05 13:42 -23.89836 41.70050 36935 ft 506 kts 75°
2026-05-05 13:43 -23.88019 41.77503 36934 ft 506 kts 75°
2026-05-05 13:43 -23.86209 41.84911 36935 ft 507 kts 75°
2026-05-05 13:44 -23.84386 41.92356 36934 ft 507 kts 75°
2026-05-05 13:44 -23.82560 41.99802 36934 ft 507 kts 75°
2026-05-05 13:45 -23.80727 42.07254 36935 ft 507 kts 75°
2026-05-05 13:45 -23.78906 42.14643 36934 ft 507 kts 75°
2026-05-05 13:46 -23.77069 42.22081 36934 ft 506 kts 75°
2026-05-05 13:46 -23.75240 42.29472 36934 ft 506 kts 75°
2026-05-05 13:47 -23.73399 42.36891 36934 ft 506 kts 75°
2026-05-05 13:47 -23.71555 42.44304 36934 ft 506 kts 75°
2026-05-05 13:48 -23.69707 42.51723 36934 ft 506 kts 75°
2026-05-05 13:48 -23.67857 42.59128 36935 ft 505 kts 75°
2026-05-05 13:49 -23.66006 42.66531 36935 ft 505 kts 75°
2026-05-05 13:49 -23.64148 42.73934 36934 ft 505 kts 75°
2026-05-05 13:50 -23.62303 42.81272 36934 ft 505 kts 75°
2026-05-05 13:50 -23.60441 42.88666 36934 ft 505 kts 75°
2026-05-05 13:51 -23.58576 42.96053 36934 ft 504 kts 75°
2026-05-05 13:51 -23.56711 43.03421 36934 ft 504 kts 75°
2026-05-05 13:52 -23.54851 43.10756 36935 ft 504 kts 75°
2026-05-05 13:52 -23.52978 43.18126 36935 ft 504 kts 75°
2026-05-05 13:53 -23.51103 43.25491 36934 ft 503 kts 75°
2026-05-05 13:53 -23.49228 43.32843 36934 ft 504 kts 75°
2026-05-05 13:54 -23.47360 43.40146 36934 ft 504 kts 75°
2026-05-05 13:54 -23.45474 43.47506 36934 ft 504 kts 75°
2026-05-05 13:55 -23.43584 43.54865 36933 ft 504 kts 75°
2026-05-05 13:55 -23.41691 43.62221 36934 ft 504 kts 75°
2026-05-05 13:56 -23.39806 43.69529 36934 ft 504 kts 75°
2026-05-05 13:56 -23.38287 43.76970 36933 ft 503 kts 79°
2026-05-05 13:57 -23.36971 43.84451 36934 ft 503 kts 80°
2026-05-05 13:57 -23.35690 43.91899 36935 ft 503 kts 80°
2026-05-05 13:58 -23.34392 43.99392 36944 ft 503 kts 80°
2026-05-05 13:58 -23.33092 44.06840 36943 ft 503 kts 80°
2026-05-05 13:59 -23.31123 44.18056 36944 ft 503 kts 80°
2026-05-05 14:00 -23.29368 44.28006 36943 ft 502 kts 80°
2026-05-05 14:00 -23.27831 44.36695 36944 ft 502 kts 80°
2026-05-05 14:01 -23.26508 44.44153 36943 ft 502 kts 80°
2026-05-05 14:01 -23.25181 44.51614 36943 ft 502 kts 80°
2026-05-05 14:02 -23.23852 44.59060 36943 ft 502 kts 80°
2026-05-05 14:02 -23.22518 44.66515 36944 ft 502 kts 80°
2026-05-05 14:03 -23.21188 44.73925 36943 ft 502 kts 80°
2026-05-05 14:03 -23.19848 44.81372 36943 ft 502 kts 80°
2026-05-05 14:04 -23.18502 44.88826 36943 ft 502 kts 80°
2026-05-05 14:04 -23.17162 44.96227 36945 ft 502 kts 80°
2026-05-05 14:05 -23.15810 45.03679 36952 ft 502 kts 80°
2026-05-05 14:05 -23.14454 45.11124 36953 ft 502 kts 80°
2026-05-05 14:06 -23.13097 45.18564 36952 ft 502 kts 80°
2026-05-05 14:06 -23.11736 45.26001 36952 ft 501 kts 80°
2026-05-05 14:07 -23.10380 45.33390 36952 ft 502 kts 79°
2026-05-05 14:07 -23.09009 45.40842 36952 ft 502 kts 79°
2026-05-05 14:08 -23.07638 45.48274 36952 ft 502 kts 79°
2026-05-05 14:08 -23.06268 45.55677 36953 ft 502 kts 79°
2026-05-05 14:09 -23.04889 45.63112 36952 ft 502 kts 79°
2026-05-05 14:09 -23.03505 45.70551 36962 ft 502 kts 79°
2026-05-05 14:10 -23.02118 45.77982 36962 ft 502 kts 79°
2026-05-05 14:10 -23.00740 45.85357 36962 ft 502 kts 79°
2026-05-05 14:11 -22.99346 45.92791 36962 ft 502 kts 79°
2026-05-05 14:11 -22.97950 46.00209 36962 ft 502 kts 79°
2026-05-05 14:12 -22.96549 46.07637 36962 ft 502 kts 79°
2026-05-05 14:12 -22.95146 46.15057 36966 ft 502 kts 79°
2026-05-05 14:13 -22.93740 46.22475 36971 ft 502 kts 79°
2026-05-05 14:13 -22.92340 46.29840 36973 ft 502 kts 79°
2026-05-05 14:14 -22.90926 46.37260 36971 ft 501 kts 79°
2026-05-05 14:14 -22.89510 46.44671 36971 ft 502 kts 79°
2026-05-05 14:15 -22.88088 46.52090 36971 ft 502 kts 79°
2026-05-05 14:15 -22.86663 46.59497 36970 ft 502 kts 79°
2026-05-05 14:16 -22.85478 46.65654 36971 ft 501 kts 79°
2026-05-05 14:16 -22.83821 46.74246 36971 ft 501 kts 79°
2026-05-05 14:17 -22.82629 46.80403 36971 ft 502 kts 79°
2026-05-05 14:17 -22.81194 46.87804 36971 ft 502 kts 79°
2026-05-05 14:18 -22.79756 46.95203 36980 ft 502 kts 79°
2026-05-05 14:18 -22.78313 47.02603 36988 ft 502 kts 79°
2026-05-05 14:19 -22.76868 47.09990 36989 ft 502 kts 79°
2026-05-05 14:19 -22.75415 47.17402 36997 ft 502 kts 79°
2026-05-05 14:20 -22.73970 47.24750 36998 ft 502 kts 79°
2026-05-05 14:20 -22.72505 47.32186 36998 ft 502 kts 79°
2026-05-05 14:21 -22.71044 47.39583 36999 ft 502 kts 79°
2026-05-05 14:21 -22.69581 47.46972 36999 ft 502 kts 79°
2026-05-05 14:22 -22.68120 47.54329 37008 ft 502 kts 79°
2026-05-05 14:22 -22.66646 47.61739 37016 ft 502 kts 79°
2026-05-05 14:23 -22.65176 47.69103 37017 ft 502 kts 79°
2026-05-05 14:23 -22.63694 47.76513 37017 ft 502 kts 79°
2026-05-05 14:24 -22.62215 47.83890 37017 ft 502 kts 79°
2026-05-05 14:24 -22.60733 47.91261 37017 ft 502 kts 79°
2026-05-05 14:25 -22.59247 47.98639 37017 ft 502 kts 79°
2026-05-05 14:25 -22.57754 48.06046 37026 ft 502 kts 79°
2026-05-05 14:26 -22.56261 48.13423 37026 ft 502 kts 79°
2026-05-05 14:26 -22.54764 48.20805 37026 ft 502 kts 79°
2026-05-05 14:27 -22.53271 48.28149 37026 ft 502 kts 79°
2026-05-05 14:27 -22.51764 48.35544 37026 ft 502 kts 79°
2026-05-05 14:28 -22.50266 48.42886 37026 ft 502 kts 79°
2026-05-05 14:28 -22.48755 48.50269 37033 ft 502 kts 79°
2026-05-05 14:29 -22.47240 48.57650 37043 ft 502 kts 79°
2026-05-05 14:29 -22.45722 48.65023 37033 ft 502 kts 79°
2026-05-05 14:30 -22.44233 48.72239 37038 ft 502 kts 78°
2026-05-05 14:30 -22.42707 48.79622 37033 ft 502 kts 78°
2026-05-05 14:31 -22.41178 48.87001 37033 ft 502 kts 78°
2026-05-05 14:31 -22.39653 48.94343 37040 ft 502 kts 78°
2026-05-05 14:32 -22.38121 49.01699 37043 ft 502 kts 78°
2026-05-05 14:32 -22.36583 49.09066 37048 ft 502 kts 78°
2026-05-05 14:33 -22.35044 49.16428 37044 ft 502 kts 78°
2026-05-05 14:33 -22.33512 49.23731 37049 ft 502 kts 78°
2026-05-05 14:34 -22.31966 49.31093 37041 ft 502 kts 78°
2026-05-05 14:34 -22.30417 49.38441 37049 ft 502 kts 78°
2026-05-05 14:35 -22.28859 49.45815 37044 ft 502 kts 78°
2026-05-05 14:35 -22.27313 49.53122 37041 ft 502 kts 78°
2026-05-05 14:36 -22.25743 49.60523 37057 ft 502 kts 78°
2026-05-05 14:36 -22.24188 49.67833 37056 ft 502 kts 78°
2026-05-05 14:37 -22.22621 49.75182 37054 ft 502 kts 78°
2026-05-05 14:37 -22.21053 49.82518 37047 ft 502 kts 78°
2026-05-05 14:38 -22.19477 49.89871 36999 ft 502 kts 78°
2026-05-05 14:38 -22.17913 49.97164 37008 ft 502 kts 78°
2026-05-05 14:39 -22.16333 50.04510 37008 ft 502 kts 78°
2026-05-05 14:39 -22.14750 50.11850 37008 ft 502 kts 78°
2026-05-05 14:40 -22.13165 50.19180 37008 ft 502 kts 78°
2026-05-05 14:40 -22.11584 50.26475 37008 ft 502 kts 78°
2026-05-05 14:41 -22.09990 50.33815 37008 ft 502 kts 78°
2026-05-05 14:41 -22.08393 50.41153 37008 ft 502 kts 78°
2026-05-05 14:42 -22.06803 50.48445 37008 ft 502 kts 78°
2026-05-05 14:42 -22.05196 50.55792 37008 ft 502 kts 78°
2026-05-05 14:43 -22.03590 50.63121 37017 ft 502 kts 78°
2026-05-05 14:43 -22.01984 50.70437 37017 ft 502 kts 77°
2026-05-05 14:44 -22.00379 50.77726 37017 ft 502 kts 77°
2026-05-05 14:44 -21.98765 50.85043 37018 ft 502 kts 77°
2026-05-05 14:45 -21.97139 50.92398 37017 ft 504 kts 77°
2026-05-05 14:45 -21.95510 50.99744 37018 ft 504 kts 77°
2026-05-05 14:46 -21.93889 51.07045 37017 ft 504 kts 77°
2026-05-05 14:46 -21.92252 51.14403 37017 ft 504 kts 77°
2026-05-05 14:47 -21.90623 51.21708 37017 ft 504 kts 77°
2026-05-05 14:47 -21.88985 51.29031 37017 ft 504 kts 77°
2026-05-05 14:48 -21.87342 51.36363 37023 ft 504 kts 77°
2026-05-05 14:48 -21.85688 51.43730 37026 ft 504 kts 77°
2026-05-05 14:49 -21.84039 51.51058 37026 ft 504 kts 77°
2026-05-05 14:49 -21.82391 51.58363 37026 ft 504 kts 77°
2026-05-05 14:50 -21.80731 51.65691 37026 ft 504 kts 77°
2026-05-05 14:50 -21.79066 51.73029 37026 ft 504 kts 77°
2026-05-05 14:51 -21.77410 51.80318 37026 ft 504 kts 77°
2026-05-05 14:51 -21.75740 51.87654 37026 ft 504 kts 77°
2026-05-05 14:52 -21.74066 51.94989 37029 ft 504 kts 77°
2026-05-05 14:52 -21.72391 52.02312 37027 ft 504 kts 77°
2026-05-05 14:53 -21.70716 52.09623 37026 ft 504 kts 77°
2026-05-05 14:53 -21.69042 52.16909 37026 ft 504 kts 77°
2026-05-05 14:54 -21.67359 52.24222 37026 ft 504 kts 77°
2026-05-05 14:54 -21.65669 52.31548 37032 ft 504 kts 77°
2026-05-05 14:55 -21.63986 52.38824 37040 ft 504 kts 76°
2026-05-05 14:55 -21.62288 52.46149 37041 ft 504 kts 76°
2026-05-05 14:56 -21.60591 52.53456 37033 ft 504 kts 76°
2026-05-05 14:56 -21.58891 52.60770 37032 ft 505 kts 76°
2026-05-05 14:57 -21.57191 52.68060 37033 ft 505 kts 76°
2026-05-05 14:57 -21.55483 52.75376 37033 ft 505 kts 76°
2026-05-05 14:58 -21.53769 52.82696 37041 ft 505 kts 76°
2026-05-05 14:58 -21.52066 52.89958 37033 ft 505 kts 76°
2026-05-05 14:59 -21.50340 52.97278 37034 ft 505 kts 76°
2026-05-05 14:59 -21.48617 53.04596 37040 ft 505 kts 76°
2026-05-05 15:00 -21.47178 53.10703 37040 ft 505 kts 76°
2026-05-05 15:00 -21.45170 53.19198 37036 ft 504 kts 76°
2026-05-05 15:01 -21.43441 53.26489 37033 ft 504 kts 76°
2026-05-05 15:01 -21.41708 53.33784 37036 ft 504 kts 76°
2026-05-05 15:02 -21.39973 53.41071 37045 ft 504 kts 76°
2026-05-05 15:02 -21.38229 53.48383 37047 ft 504 kts 76°
2026-05-05 15:03 -21.36484 53.55685 37045 ft 504 kts 76°
2026-05-05 15:03 -21.34757 53.62894 37048 ft 502 kts 76°
2026-05-05 15:04 -21.33016 53.70151 37043 ft 501 kts 76°
2026-05-05 15:04 -21.31285 53.77349 37045 ft 501 kts 76°
2026-05-05 15:05 -21.28671 53.88193 37043 ft 501 kts 76°
2026-05-05 15:06 -21.27214 53.94220 37043 ft 501 kts 76°
2026-05-05 15:06 -21.25460 54.01469 37043 ft 501 kts 76°
2026-05-05 15:07 -21.23715 54.08659 37047 ft 501 kts 76°
2026-05-05 15:07 -21.21953 54.15910 37048 ft 501 kts 76°
2026-05-05 15:08 -21.20197 54.23122 37043 ft 502 kts 76°
2026-05-05 15:08 -21.18426 54.30373 37047 ft 502 kts 76°
2026-05-05 15:09 -21.16667 54.37569 37045 ft 502 kts 76°
2026-05-05 15:09 -21.14893 54.44814 37049 ft 502 kts 76°
2026-05-05 15:10 -21.13113 54.52067 37044 ft 502 kts 75°
2026-05-05 15:10 -21.11344 54.59263 37047 ft 502 kts 75°
2026-05-05 15:11 -21.09556 54.66514 37048 ft 502 kts 75°
2026-05-05 15:11 -21.07765 54.73764 37043 ft 503 kts 75°
2026-05-05 15:12 -21.05985 54.80960 37047 ft 503 kts 75°
2026-05-05 15:12 -21.04193 54.88193 37043 ft 503 kts 75°
2026-05-05 15:13 -21.02394 54.95435 37045 ft 503 kts 75°
2026-05-05 15:13 -21.00592 55.02676 37047 ft 503 kts 75°
2026-05-05 15:14 -20.98801 55.09857 37045 ft 503 kts 75°
2026-05-05 15:14 -20.96994 55.17090 37048 ft 503 kts 75°
2026-05-05 15:15 -20.95185 55.24319 37042 ft 503 kts 75°
2026-05-05 15:15 -20.93379 55.31520 37041 ft 503 kts 75°
2026-05-05 15:16 -20.91561 55.38759 37045 ft 503 kts 75°
2026-05-05 15:16 -20.89742 55.45983 37040 ft 503 kts 75°
2026-05-05 15:17 -20.87928 55.53219 37048 ft 503 kts 76°
2026-05-05 15:17 -20.86319 55.60478 37049 ft 504 kts 77°
2026-05-05 15:18 -20.84773 55.67802 37046 ft 504 kts 77°
2026-05-05 15:18 -20.83202 55.75107 37044 ft 504 kts 77°
2026-05-05 15:19 -20.81612 55.82364 37046 ft 504 kts 77°
2026-05-05 15:19 -20.79999 55.89675 37042 ft 504 kts 77°
2026-05-05 15:20 -20.78385 55.96980 37047 ft 504 kts 77°
2026-05-05 15:20 -20.76770 56.04274 37055 ft 505 kts 77°
2026-05-05 15:21 -20.75160 56.11538 37055 ft 505 kts 77°
2026-05-05 15:21 -20.73537 56.18844 37055 ft 505 kts 77°
2026-05-05 15:22 -20.71921 56.26102 37055 ft 505 kts 76°
2026-05-05 15:22 -20.70342 56.33422 37052 ft 504 kts 77°
2026-05-05 15:23 -20.68828 56.40741 37053 ft 504 kts 77°
2026-05-05 15:23 -20.67307 56.48063 37054 ft 505 kts 77°
2026-05-05 15:24 -20.65778 56.55342 37060 ft 505 kts 77°
2026-05-05 15:24 -20.64230 56.62675 37065 ft 505 kts 77°
2026-05-05 15:25 -20.62690 56.69951 37065 ft 504 kts 77°
2026-05-05 15:25 -20.61138 56.77267 37064 ft 504 kts 77°
2026-05-05 15:26 -20.59585 56.84576 37065 ft 504 kts 77°
2026-05-05 15:26 -20.58030 56.91877 37067 ft 504 kts 77°
2026-05-05 15:27 -20.56480 56.99142 37073 ft 504 kts 77°
2026-05-05 15:27 -20.54920 57.06436 37072 ft 504 kts 77°
2026-05-05 15:28 -20.53357 57.13726 37073 ft 504 kts 77°
2026-05-05 15:28 -20.51792 57.21012 37073 ft 504 kts 77°
2026-05-05 15:29 -20.50233 57.28255 37073 ft 504 kts 77°
2026-05-05 15:29 -20.48659 57.35551 37073 ft 504 kts 77°
2026-05-05 15:30 -20.47083 57.42843 37073 ft 504 kts 77°
2026-05-05 15:30 -20.45511 57.50099 37074 ft 504 kts 77°
2026-05-05 15:31 -20.43928 57.57388 37073 ft 504 kts 77°
2026-05-05 15:31 -20.42321 57.64692 37069 ft 505 kts 75°
2026-05-05 15:32 -20.39962 57.71697 37073 ft 505 kts 68°
2026-05-05 15:32 -20.37355 57.78658 37074 ft 505 kts 68°
2026-05-05 15:33 -20.34727 57.85559 37073 ft 505 kts 68°
2026-05-05 15:33 -20.32087 57.92501 37073 ft 505 kts 68°
2026-05-05 15:34 -20.29454 57.99445 37074 ft 505 kts 68°
2026-05-05 15:34 -20.26816 58.06402 37072 ft 505 kts 68°
2026-05-05 15:35 -20.24191 58.13317 37072 ft 505 kts 68°
2026-05-05 15:35 -20.21547 58.20269 37072 ft 505 kts 68°
2026-05-05 15:36 -20.18921 58.27166 37073 ft 505 kts 68°
2026-05-05 15:36 -20.16277 58.34098 37072 ft 505 kts 68°
2026-05-05 15:37 -20.13629 58.41034 37073 ft 505 kts 68°
2026-05-05 15:37 -20.10975 58.47974 37073 ft 505 kts 68°
2026-05-05 15:38 -20.08341 58.54853 37073 ft 505 kts 68°
2026-05-05 15:38 -20.05684 58.61782 37072 ft 505 kts 68°
2026-05-05 15:39 -20.03031 58.68694 37072 ft 504 kts 68°
2026-05-05 15:39 -20.00374 58.75603 37073 ft 504 kts 67°
2026-05-05 15:40 -19.97715 58.82510 37073 ft 505 kts 67°
2026-05-05 15:40 -19.95064 58.89388 37073 ft 506 kts 67°
2026-05-05 15:41 -19.92386 58.96325 37073 ft 506 kts 67°
2026-05-05 15:41 -19.89720 59.03221 37072 ft 506 kts 67°
2026-05-05 15:42 -19.87036 59.10155 37073 ft 506 kts 67°
2026-05-05 15:42 -19.84353 59.17079 37073 ft 506 kts 67°
2026-05-05 15:43 -19.81668 59.23997 37072 ft 506 kts 67°
2026-05-05 15:43 -19.79000 59.30864 37072 ft 506 kts 67°
2026-05-05 15:44 -19.76311 59.37775 37072 ft 506 kts 67°
2026-05-05 15:44 -19.73620 59.44680 37064 ft 506 kts 67°
2026-05-05 15:45 -19.70927 59.51583 37063 ft 506 kts 67°
2026-05-05 15:45 -19.68235 59.58476 37063 ft 505 kts 67°
2026-05-05 15:46 -19.65554 59.65329 37063 ft 505 kts 67°
2026-05-05 15:46 -19.62854 59.72222 37065 ft 505 kts 67°
2026-05-05 15:47 -19.60151 59.79114 37064 ft 505 kts 67°
2026-05-05 15:47 -19.57451 59.85990 37062 ft 505 kts 67°
2026-05-05 15:48 -19.54764 59.92824 37064 ft 505 kts 67°
2026-05-05 15:48 -19.52053 59.99710 37063 ft 505 kts 67°
2026-05-05 15:49 -19.49344 60.06582 37063 ft 505 kts 67°
2026-05-05 15:49 -19.46656 60.13422 37063 ft 505 kts 68°
2026-05-05 15:50 -19.44103 60.20363 37065 ft 506 kts 69°
2026-05-05 15:50 -19.41594 60.27326 37063 ft 506 kts 69°
2026-05-05 15:51 -19.39064 60.34279 37063 ft 506 kts 68°
2026-05-05 15:51 -19.36511 60.41232 37062 ft 506 kts 68°
2026-05-05 15:52 -19.33949 60.48184 37052 ft 506 kts 68°
2026-05-05 15:52 -19.31403 60.55083 37054 ft 506 kts 68°
2026-05-05 15:53 -19.28839 60.62027 37053 ft 506 kts 68°
2026-05-05 15:53 -19.26268 60.68983 37057 ft 507 kts 68°
2026-05-05 15:54 -19.23692 60.75939 37057 ft 507 kts 68°
2026-05-05 15:54 -19.21115 60.82892 37057 ft 507 kts 68°
2026-05-05 15:55 -19.18553 60.89797 37054 ft 507 kts 68°
2026-05-05 15:55 -19.15967 60.96752 37053 ft 507 kts 68°
2026-05-05 15:56 -19.13381 61.03701 37056 ft 507 kts 68°
2026-05-05 15:56 -19.10809 61.10602 37057 ft 507 kts 68°
2026-05-05 15:57 -19.08214 61.17557 37055 ft 507 kts 68°
2026-05-05 15:57 -19.05621 61.24497 37054 ft 507 kts 68°
2026-05-05 15:58 -19.03038 61.31400 37056 ft 508 kts 68°
2026-05-05 15:58 -19.00438 61.38338 37052 ft 508 kts 68°
2026-05-05 15:59 -18.98274 61.44110 37053 ft 508 kts 68°
2026-05-05 15:59 -18.95665 61.51058 37055 ft 508 kts 68°
2026-05-05 16:00 -18.93056 61.57997 37051 ft 508 kts 68°
2026-05-05 16:00 -18.90460 61.64892 37055 ft 508 kts 68°
2026-05-05 16:01 -18.87843 61.71833 37054 ft 508 kts 67°
2026-05-05 16:01 -18.85221 61.78779 37052 ft 508 kts 67°
2026-05-05 16:02 -18.82598 61.85716 37054 ft 509 kts 67°
2026-05-05 16:02 -18.79974 61.92652 37054 ft 509 kts 67°
2026-05-05 16:03 -18.77361 61.99548 37054 ft 509 kts 67°
2026-05-05 16:03 -18.74727 62.06488 37043 ft 509 kts 67°
2026-05-05 16:04 -18.72090 62.13429 37046 ft 510 kts 67°
2026-05-05 16:04 -18.69449 62.20371 37043 ft 510 kts 67°
2026-05-05 16:05 -18.66802 62.27321 37046 ft 510 kts 67°
2026-05-05 16:05 -18.64151 62.34272 37045 ft 510 kts 67°
2026-05-05 16:06 -18.61516 62.41174 37044 ft 510 kts 67°
2026-05-05 16:06 -18.58865 62.48108 37044 ft 510 kts 67°
2026-05-05 16:07 -18.56203 62.55060 37047 ft 510 kts 67°
2026-05-05 16:07 -18.53558 62.61961 37044 ft 510 kts 67°
2026-05-05 16:08 -18.50887 62.68921 37045 ft 511 kts 67°
2026-05-05 16:08 -18.48219 62.75862 37044 ft 510 kts 67°
2026-05-05 16:09 -18.45570 62.82746 37047 ft 510 kts 67°
2026-05-05 16:09 -18.42894 62.89689 37047 ft 510 kts 67°
2026-05-05 16:10 -18.40221 62.96620 37047 ft 510 kts 67°
2026-05-05 16:10 -18.37558 63.03517 37045 ft 510 kts 67°
2026-05-05 16:11 -18.34882 63.10437 37043 ft 511 kts 67°
2026-05-05 16:12 -18.29529 63.24255 37045 ft 511 kts 66°
2026-05-05 16:13 -18.22793 63.41594 37047 ft 511 kts 66°
2026-05-05 16:13 -18.20108 63.48488 37045 ft 512 kts 66°
2026-05-05 16:14 -18.14695 63.62367 37045 ft 512 kts 66°
2026-05-05 16:15 -18.09285 63.76204 37041 ft 513 kts 66°
2026-05-05 16:16 -18.03850 63.90069 37045 ft 513 kts 66°
2026-05-05 16:17 -17.99761 64.00480 37046 ft 513 kts 66°
2026-05-05 16:18 -17.95679 64.10851 37047 ft 513 kts 66°
2026-05-05 16:19 -17.91590 64.21225 37044 ft 513 kts 66°
2026-05-05 16:19 -17.87501 64.31577 37047 ft 513 kts 66°
2026-05-05 16:20 -17.82029 64.45403 37046 ft 513 kts 66°
2026-05-05 16:22 -17.75181 64.62661 37033 ft 512 kts 66°
2026-05-05 16:23 -17.69686 64.76474 37037 ft 512 kts 66°
2026-05-05 16:23 -17.65573 64.86787 37037 ft 512 kts 66°
2026-05-05 16:24 -17.62816 64.93690 37035 ft 512 kts 66°
2026-05-05 16:24 -17.60062 65.00581 37213 ft 512 kts 66°
2026-05-05 16:25 -17.58685 65.04021 37464 ft 510 kts 66°
2026-05-05 16:25 -17.55955 65.10836 37885 ft 509 kts 66°
2026-05-05 16:25 -17.54583 65.14257 38033 ft 509 kts 65°
2026-05-05 16:26 -17.51835 65.21101 38332 ft 509 kts 65°
2026-05-05 16:26 -17.49100 65.27909 38622 ft 509 kts 65°
2026-05-05 16:27 -17.47727 65.31323 38745 ft 509 kts 65°
2026-05-05 16:27 -17.46352 65.34739 38874 ft 509 kts 65°
2026-05-05 16:27 -17.44976 65.38156 38986 ft 509 kts 65°
2026-05-05 16:27 -17.43598 65.41578 39037 ft 510 kts 65°
2026-05-05 16:28 -17.40828 65.48447 39035 ft 512 kts 65°
2026-05-05 16:28 -17.38058 65.55309 39037 ft 511 kts 65°
2026-05-05 16:29 -17.35302 65.62132 39035 ft 511 kts 65°
2026-05-05 16:29 -17.32524 65.69000 39036 ft 511 kts 65°
2026-05-05 16:30 -17.29765 65.75809 39037 ft 511 kts 65°
2026-05-05 16:30 -17.26982 65.82671 39037 ft 511 kts 65°
2026-05-05 16:31 -17.24202 65.89516 39030 ft 511 kts 65°
2026-05-05 16:31 -17.21437 65.96320 39027 ft 511 kts 65°
2026-05-05 16:32 -17.18651 66.03169 39026 ft 510 kts 65°
2026-05-05 16:32 -17.15869 66.09997 39027 ft 510 kts 65°
2026-05-05 16:33 -17.13085 66.16824 39026 ft 510 kts 65°
2026-05-05 16:33 -17.10316 66.23605 39027 ft 510 kts 65°
2026-05-05 16:34 -17.07527 66.30426 39026 ft 510 kts 65°
2026-05-05 16:34 -17.04737 66.37246 39027 ft 509 kts 65°
2026-05-05 16:35 -17.01951 66.44048 39027 ft 509 kts 65°
2026-05-05 16:35 -16.99181 66.50804 39026 ft 509 kts 65°
2026-05-05 16:36 -16.96394 66.57593 39027 ft 509 kts 65°
2026-05-05 16:36 -16.93603 66.64383 39025 ft 509 kts 65°
2026-05-05 16:37 -16.90809 66.71173 39026 ft 508 kts 65°
2026-05-05 16:37 -16.88019 66.77948 39021 ft 508 kts 65°
2026-05-05 16:38 -16.85221 66.84731 39027 ft 508 kts 65°
2026-05-05 16:38 -16.82423 66.91512 39008 ft 508 kts 65°
2026-05-05 16:39 -16.79623 66.98288 39008 ft 508 kts 65°
2026-05-05 16:39 -16.76822 67.05056 39012 ft 508 kts 65°
2026-05-05 16:40 -16.74019 67.11824 39025 ft 508 kts 65°
2026-05-05 16:40 -16.71209 67.18602 39026 ft 508 kts 65°
2026-05-05 16:41 -16.68418 67.25326 39026 ft 508 kts 65°
2026-05-05 16:41 -16.65605 67.32097 39008 ft 508 kts 65°
2026-05-05 16:42 -16.62795 67.38854 39027 ft 507 kts 65°
2026-05-05 16:42 -16.59985 67.45603 39008 ft 507 kts 65°
2026-05-05 16:43 -16.57208 67.52264 39002 ft 507 kts 65°
2026-05-05 16:43 -16.54382 67.59039 39018 ft 507 kts 65°
2026-05-05 16:44 -16.51565 67.65780 39008 ft 507 kts 65°
2026-05-05 16:44 -16.48749 67.72515 39004 ft 506 kts 65°
2026-05-05 16:45 -16.45934 67.79241 39010 ft 506 kts 65°
2026-05-05 16:45 -16.43131 67.85937 39007 ft 506 kts 64°
2026-05-05 16:46 -16.40310 67.92660 39008 ft 506 kts 64°
2026-05-05 16:46 -16.37481 67.99393 39005 ft 506 kts 64°
2026-05-05 16:47 -16.34660 68.06103 39005 ft 506 kts 64°
2026-05-05 16:47 -16.31850 68.12781 39005 ft 506 kts 64°
2026-05-05 16:48 -16.29031 68.19471 39005 ft 506 kts 64°
2026-05-05 16:48 -16.26678 68.25052 38996 ft 506 kts 64°
2026-05-05 16:49 -16.23851 68.31753 39006 ft 506 kts 64°
2026-05-05 16:49 -16.21019 68.38460 38992 ft 506 kts 64°
2026-05-05 16:50 -16.18198 68.45129 38992 ft 506 kts 64°
2026-05-05 16:50 -16.15362 68.51827 38995 ft 506 kts 64°
2026-05-05 16:51 -16.12520 68.58533 38997 ft 506 kts 64°
2026-05-05 16:51 -16.09700 68.65185 38996 ft 506 kts 64°
2026-05-05 16:52 -16.06837 68.71929 38994 ft 506 kts 64°
2026-05-05 16:52 -16.03998 68.78606 38998 ft 506 kts 64°
2026-05-05 16:53 -16.01177 68.85236 39006 ft 506 kts 64°
2026-05-05 16:53 -15.98324 68.91935 38985 ft 505 kts 64°
2026-05-05 16:54 -15.95478 68.98608 38993 ft 504 kts 64°
2026-05-05 16:54 -15.92642 69.05253 38992 ft 503 kts 64°
2026-05-05 16:55 -15.89804 69.11894 38988 ft 503 kts 64°
2026-05-05 16:55 -15.86979 69.18503 38995 ft 503 kts 64°
2026-05-05 16:56 -15.84142 69.25131 38984 ft 502 kts 64°
2026-05-05 16:56 -15.81290 69.31787 38987 ft 502 kts 64°
2026-05-05 16:57 -15.78449 69.38411 38988 ft 502 kts 64°
2026-05-05 16:57 -15.75625 69.44991 38989 ft 502 kts 64°
2026-05-05 16:58 -15.72767 69.51642 38986 ft 502 kts 64°
2026-05-05 16:58 -15.69915 69.58270 38982 ft 502 kts 64°
2026-05-05 16:59 -15.67063 69.64892 38984 ft 502 kts 64°
2026-05-05 16:59 -15.64229 69.71470 38975 ft 502 kts 64°
2026-05-05 17:00 -15.61372 69.78091 38984 ft 502 kts 64°
2026-05-05 17:00 -15.58509 69.84720 38983 ft 502 kts 64°
2026-05-05 17:01 -15.55669 69.91290 38982 ft 502 kts 64°
2026-05-05 17:01 -15.52808 69.97903 38984 ft 502 kts 64°
2026-05-05 17:02 -15.49938 70.04533 38983 ft 502 kts 64°
2026-05-05 17:02 -15.47077 70.11130 38981 ft 502 kts 64°
2026-05-05 17:03 -15.44209 70.17733 38984 ft 502 kts 64°
2026-05-05 17:03 -15.41353 70.24305 38978 ft 501 kts 64°
2026-05-05 17:04 -15.38491 70.30885 38980 ft 501 kts 64°
2026-05-05 17:04 -15.35619 70.37485 38980 ft 501 kts 64°
2026-05-05 17:05 -15.32765 70.44034 38980 ft 501 kts 64°
2026-05-05 17:05 -15.29902 70.50596 38985 ft 501 kts 64°
2026-05-05 17:06 -15.27024 70.57188 38969 ft 500 kts 64°
2026-05-05 17:06 -15.24158 70.63747 38975 ft 500 kts 64°
2026-05-05 17:07 -15.21290 70.70303 38971 ft 500 kts 64°
2026-05-05 17:07 -15.18433 70.76829 38970 ft 499 kts 64°
2026-05-05 17:08 -15.15560 70.83386 38969 ft 499 kts 64°
2026-05-05 17:08 -15.12683 70.89945 38969 ft 499 kts 64°
2026-05-05 17:09 -15.09824 70.96456 38969 ft 499 kts 64°
2026-05-05 17:09 -15.06951 71.02996 38973 ft 499 kts 64°
2026-05-05 17:10 -15.04089 71.09501 38974 ft 499 kts 64°
2026-05-05 17:10 -15.01211 71.16040 38971 ft 498 kts 64°
2026-05-05 17:11 -14.98331 71.22575 38970 ft 498 kts 64°
2026-05-05 17:11 -14.95454 71.29099 38975 ft 498 kts 64°
2026-05-05 17:12 -14.92577 71.35616 38978 ft 498 kts 64°
2026-05-05 17:12 -14.89715 71.42093 38980 ft 498 kts 64°
2026-05-05 17:13 -14.86832 71.48611 38982 ft 498 kts 64°
2026-05-05 17:13 -14.83952 71.55118 38980 ft 497 kts 64°
2026-05-05 17:14 -14.81063 71.61639 38976 ft 497 kts 64°
2026-05-05 17:14 -14.78204 71.68084 38970 ft 497 kts 64°
2026-05-05 17:15 -14.75316 71.74594 38972 ft 497 kts 64°
2026-05-05 17:15 -14.72433 71.81083 38970 ft 497 kts 64°
2026-05-05 17:16 -14.69554 71.87558 38970 ft 496 kts 64°
2026-05-05 17:16 -14.66685 71.94005 38972 ft 496 kts 64°
2026-05-05 17:17 -14.63801 72.00480 38971 ft 496 kts 64°
2026-05-05 17:17 -14.60917 72.06948 38974 ft 496 kts 64°
2026-05-05 17:18 -14.58037 72.13398 38970 ft 496 kts 64°
2026-05-05 17:18 -14.55145 72.19876 38971 ft 496 kts 64°
2026-05-05 17:19 -14.52263 72.26327 38971 ft 496 kts 64°
2026-05-05 17:19 -14.49366 72.32801 38969 ft 495 kts 64°
2026-05-05 17:20 -14.46467 72.39276 38967 ft 496 kts 64°
2026-05-05 17:20 -14.43588 72.45699 38963 ft 496 kts 64°
2026-05-05 17:21 -14.40688 72.52162 38962 ft 496 kts 64°
2026-05-05 17:22 -14.36352 72.61820 38961 ft 496 kts 64°
2026-05-05 17:22 -14.33450 72.68276 38962 ft 496 kts 64°
2026-05-05 17:23 -14.30551 72.74720 38962 ft 496 kts 63°
2026-05-05 17:23 -14.27647 72.81170 38963 ft 496 kts 63°
2026-05-05 17:24 -14.24754 72.87591 38962 ft 496 kts 63°
2026-05-05 17:24 -14.21848 72.94033 38962 ft 496 kts 63°
2026-05-05 17:25 -14.18932 73.00491 38953 ft 496 kts 63°
2026-05-05 17:25 -14.16013 73.06951 38953 ft 496 kts 63°
2026-05-05 17:26 -14.13122 73.13345 38952 ft 496 kts 63°
2026-05-05 17:26 -14.10203 73.19795 38952 ft 496 kts 63°
2026-05-05 17:27 -14.07284 73.26240 38952 ft 496 kts 63°
2026-05-05 17:27 -14.04362 73.32683 38953 ft 496 kts 63°
2026-05-05 17:28 -14.01444 73.39115 38951 ft 496 kts 63°
2026-05-05 17:28 -13.98517 73.45563 38954 ft 496 kts 63°
2026-05-05 17:29 -13.95614 73.51952 38951 ft 495 kts 63°
2026-05-05 17:29 -13.92691 73.58375 38954 ft 495 kts 63°
2026-05-05 17:30 -13.89767 73.64798 38953 ft 495 kts 63°
2026-05-05 17:30 -13.86834 73.71234 38952 ft 495 kts 63°
2026-05-05 17:31 -13.83922 73.77621 38952 ft 495 kts 63°